TimeCDT,TemperatureF,Dew PointF,Humidity,Sea Level PressureIn,VisibilityMPH,Wind Direction,Wind SpeedMPH,Gust SpeedMPH,PrecipitationIn,Events,Conditions,WindDirDegrees,DateUTC
12:02 AM,55.4,50.0,82,30.03,10.0,SSE,5.8,-,N/A,,Overcast,160,2012-10-13 05:02:00
12:18 AM,55.4,50.0,82,30.03,10.0,South,8.1,-,N/A,,Overcast,170,2012-10-13 05:18:00
12:55 AM,55.4,51.8,88,30.00,10.0,South,9.2,-,N/A,,Overcast,170,2012-10-13 05:55:00
1:35 AM,57.2,53.6,88,29.97,10.0,SSE,8.1,-,0.01,,Overcast,160,2012-10-13 06:35:00
1:55 AM,57.2,53.6,88,29.96,10.0,South,6.9,-,0.01,,Overcast,170,2012-10-13 06:55:00
2:15 AM,57.2,55.4,94,29.94,10.0,South,8.1,-,N/A,,Overcast,170,2012-10-13 07:15:00
2:35 AM,57.2,55.4,94,29.94,10.0,South,9.2,-,N/A,Rain,Rain,170,2012-10-13 07:35:00
2:55 AM,57.2,55.4,94,29.93,10.0,South,6.9,-,0.02,Rain,Rain,170,2012-10-13 07:55:00
3:15 AM,57.2,55.4,94,29.93,7.0,South,9.2,-,N/A,,Light Drizzle,170,2012-10-13 08:15:00
3:35 AM,57.2,55.4,94,29.92,7.0,SSE,6.9,-,N/A,Rain,Rain,160,2012-10-13 08:35:00
3:55 AM,57.2,57.2,100,29.92,7.0,South,3.5,-,0.01,Rain,Light Rain,170,2012-10-13 08:55:00
4:15 AM,57.2,57.2,100,29.91,7.0,South,6.9,-,N/A,,Drizzle,170,2012-10-13 09:15:00
4:35 AM,59.0,57.2,94,29.89,7.0,South,8.1,-,N/A,,Overcast,170,2012-10-13 09:35:00
4:55 AM,60.8,57.2,88,29.88,5.0,South,6.9,-,N/A,,Overcast,170,2012-10-13 09:55:00
5:15 AM,60.8,59.0,94,29.87,5.0,South,9.2,-,0.01,,Overcast,170,2012-10-13 10:15:00
5:35 AM,60.8,60.8,100,29.86,2.5,SSE,17.3,25.3,0.15,Rain,Heavy Rain,160,2012-10-13 10:35:00
5:55 AM,62.6,60.8,94,29.90,2.0,SSW,13.8,31.1,0.39,Rain,Heavy Rain,200,2012-10-13 10:55:00
6:15 AM,62.6,60.8,94,29.87,7.0,South,5.8,-,0.06,Rain,Rain,180,2012-10-13 11:15:00
6:35 AM,62.6,60.8,94,29.86,5.0,SSE,5.8,-,0.07,Rain,Light Rain,150,2012-10-13 11:35:00
6:55 AM,62.6,60.8,94,29.86,5.0,South,8.1,-,0.07,,Overcast,180,2012-10-13 11:55:00
7:15 AM,62.6,62.6,100,29.85,4.0,South,6.9,-,N/A,,Overcast,170,2012-10-13 12:15:00
7:35 AM,64.4,62.6,94,29.83,5.0,South,9.2,-,N/A,,Overcast,170,2012-10-13 12:35:00
7:55 AM,64.4,64.4,100,29.83,5.0,South,11.5,17.3,N/A,,Overcast,170,2012-10-13 12:55:00
8:15 AM,66.2,64.4,94,29.84,4.0,South,12.7,18.4,N/A,,Overcast,180,2012-10-13 13:15:00
8:35 AM,66.2,66.2,100,29.84,4.0,SSW,12.7,20.7,N/A,Rain,Rain,200,2012-10-13 13:35:00
8:55 AM,66.2,66.2,100,29.84,4.0,South,15.0,19.6,N/A,Rain,Light Rain,190,2012-10-13 13:55:00
9:35 AM,68.0,66.2,94,29.80,5.0,South,10.4,-,0.01,Rain,Light Rain,180,2012-10-13 14:35:00
9:55 AM,68.0,66.2,94,29.79,5.0,SSE,11.5,-,0.01,,Mostly Cloudy,160,2012-10-13 14:55:00
10:15 AM,68.0,66.2,94,29.79,5.0,South,12.7,-,N/A,,Mostly Cloudy,170,2012-10-13 15:15:00
10:35 AM,69.8,66.2,88,29.79,5.0,South,12.7,-,N/A,,Mostly Cloudy,180,2012-10-13 15:35:00
10:55 AM,69.8,66.2,88,29.80,7.0,South,12.7,17.3,N/A,,Scattered Clouds,180,2012-10-13 15:55:00
11:15 AM,69.8,66.2,88,29.80,7.0,South,9.2,-,N/A,,Scattered Clouds,180,2012-10-13 16:15:00
11:35 AM,71.6,66.2,83,29.79,10.0,South,11.5,17.3,N/A,,Clear,190,2012-10-13 16:35:00
11:55 AM,71.6,66.2,83,29.79,10.0,South,10.4,-,N/A,,Clear,180,2012-10-13 16:55:00
12:15 PM,71.6,64.4,78,29.78,10.0,South,15.0,19.6,N/A,,Clear,190,2012-10-13 17:15:00
12:35 PM,73.4,66.2,78,29.77,10.0,South,12.7,-,N/A,,Clear,180,2012-10-13 17:35:00
12:55 PM,73.4,66.2,78,29.76,10.0,South,10.4,-,N/A,,Clear,180,2012-10-13 17:55:00
1:15 PM,75.2,66.2,73,29.74,10.0,South,10.4,-,N/A,,Clear,180,2012-10-13 18:15:00
1:35 PM,77.0,66.2,69,29.74,10.0,South,15.0,19.6,N/A,,Clear,190,2012-10-13 18:35:00
1:55 PM,75.2,64.4,69,29.74,10.0,SSW,16.1,25.3,N/A,,Scattered Clouds,200,2012-10-13 18:55:00
2:15 PM,75.2,64.4,69,29.73,10.0,South,15.0,25.3,N/A,,Mostly Cloudy,190,2012-10-13 19:15:00
2:35 PM,73.4,66.2,78,29.72,10.0,South,12.7,20.7,N/A,,Mostly Cloudy,190,2012-10-13 19:35:00
2:55 PM,73.4,66.2,78,29.72,10.0,South,13.8,-,N/A,,Mostly Cloudy,180,2012-10-13 19:55:00
3:15 PM,73.4,66.2,78,29.71,10.0,South,15.0,-,N/A,,Overcast,190,2012-10-13 20:15:00
3:35 PM,71.6,66.2,83,29.71,10.0,South,11.5,19.6,N/A,,Overcast,190,2012-10-13 20:35:00
3:55 PM,71.6,66.2,83,29.70,10.0,South,11.5,-,N/A,,Overcast,180,2012-10-13 20:55:00
4:15 PM,71.6,66.2,83,29.69,10.0,South,9.2,-,N/A,,Overcast,180,2012-10-13 21:15:00
4:35 PM,71.6,66.2,83,29.69,10.0,South,9.2,-,N/A,,Mostly Cloudy,190,2012-10-13 21:35:00
4:55 PM,71.6,66.2,83,29.69,10.0,SSE,9.2,-,N/A,,Mostly Cloudy,160,2012-10-13 21:55:00
5:15 PM,71.6,66.2,83,29.70,10.0,South,11.5,-,N/A,,Mostly Cloudy,180,2012-10-13 22:15:00
5:35 PM,71.6,66.2,83,29.70,10.0,South,12.7,18.4,N/A,,Overcast,180,2012-10-13 22:35:00
5:55 PM,71.6,66.2,83,29.70,10.0,South,9.2,-,N/A,,Mostly Cloudy,170,2012-10-13 22:55:00
6:15 PM,71.6,66.2,83,29.69,10.0,South,8.1,-,N/A,,Overcast,170,2012-10-13 23:15:00
6:35 PM,69.8,66.2,88,29.69,10.0,South,10.4,-,N/A,Rain,Rain,180,2012-10-13 23:35:00
7:15 PM,69.8,66.2,88,29.67,7.0,SSE,8.1,-,0.01,,Drizzle,160,2012-10-14 00:15:00
7:35 PM,68.0,66.2,94,29.65,10.0,Calm,Calm,-,0.02,Rain,Heavy Rain,0,2012-10-14 00:35:00
7:55 PM,68.0,66.2,94,29.64,7.0,SSE,4.6,-,0.03,Rain,Rain,150,2012-10-14 00:55:00
8:15 PM,68.0,66.2,94,29.63,10.0,SSE,5.8,-,0.02,Rain,Light Rain,150,2012-10-14 01:15:00
8:55 PM,68.0,66.2,94,29.63,5.0,SSE,8.1,-,0.06,Rain,Rain,160,2012-10-14 01:55:00
9:15 PM,69.8,66.2,88,29.62,7.0,SSE,5.8,-,0.01,Rain,Light Rain,160,2012-10-14 02:15:00
9:35 PM,69.8,66.2,88,29.61,7.0,SSE,8.1,-,0.01,,Mostly Cloudy,160,2012-10-14 02:35:00
9:55 PM,69.8,68.0,94,29.62,10.0,SSW,11.5,17.3,0.04,Rain,Light Rain,200,2012-10-14 02:55:00
10:15 PM,64.4,62.6,94,29.65,10.0,WNW,6.9,23.0,0.26,Rain,Heavy Rain,300,2012-10-14 03:15:00
10:55 PM,62.6,62.6,100,29.62,10.0,NE,3.5,-,0.35,Rain,Rain,40,2012-10-14 03:55:00
11:35 PM,64.4,62.6,94,29.58,10.0,NE,5.8,-,0.05,,Clear,40,2012-10-14 04:35:00
11:55 PM,64.4,62.6,94,29.59,10.0,NE,6.9,-,0.05,,Clear,50,2012-10-14 04:55:00